Regional Weather Roundup
Issued by NWS Tiyan, Guam

Home | Current Version | Previous Version | Text Only | Print | Product List | Glossary On
Versions: 1 2 3 4 5 6 7 8 9 10 11 12 13 14 15 16 17 18 19 20 21 22 23 24 25 26 27 28
000
ASGM40 PGUM 160512
RWRGUM
WEATHER ROUNDUP FOR THE MARIANAS
NATIONAL WEATHER SERVICE TIYAN GU
300 PM GSST WED APR 16 2014

GUZ001>004-160600-
MARIANA ISLANDS-

CITY           SKY/WX    TMP DP  RH WIND       PRES   REMARKS
GUAM AIRPORT   MOSUNNY   91  75  59 NE13      29.75F HX 102
ANDERSEN AFB   PTSUNNY   84  77  79 NE13      29.76F HX  94
ROTA AIRPORT   MOSUNNY   82  77  83 NE12      29.76F HX  91
TINIAN AP      MOSUNNY   84  73  70 NE16      29.75F HX  91
SAIPAN AP      MOSUNNY   86  75  70 E16       29.76F HX  95

$$




USA.gov is the U.S. government's official web portal to all federal, state and local government web resources and services.